Lincoln, NE

2:08 PM CDT on May 22, 2017 (GMT -0500)
Lincoln Municipal

Weather History for KLNK - March, 2014

Change the Weather History Date:

Saturday, March 8, 2014

  Actual Average Record
Temperature  
Mean Temperature 31 °F 37 °F  
Max Temperature 43 °F 49 °F 79 °F (1977)
Min Temperature 19 °F 25 °F -8 °F (1995)
Degree Days  
Heating Degree Days 34 28  
Month to date heating degree days 352 235  
Since 1 July heating degree days 5469 4938  
Cooling Degree Days 0 0  
Month to date cooling degree days 0 0  
Year to date cooling degree days 0 0  
Moisture  
Dew Point 13 °F    
Average Humidity 50    
Maximum Humidity 73    
Minimum Humidity 27    
Precipitation  
Precipitation T in 0.05 in 0.80 in (1999)
Month to date precipitation 0.03 0.35  
Year to date precipitation 0.89 1.76  
Snow  
Snow T in 0.20 in - ()
Month to date snowfall 0.6 1.4  
Since 1 July snowfall 17.6 21.1  
Snow Depth 0.00 in    
Sea Level Pressure  
Sea Level Pressure 30.34 in    
Wind  
Wind Speed 9 mph (North)    
Max Wind Speed 25 mph    
Max Gust Speed 31 mph    
Visibility 10 miles    
Events      
T = Trace of Precipitation, MM = Missing Value Source: NWS Daily Summary

Daily Weather History Graph

Daily Weather History Graph

Search for Another Location

Airport or City:

Trip Planner

Search our weather history database for the weather conditions in past years. The results will help you decide how hot, cold, wet, or windy it might be!

Date:

Astronomy

Mar. 08, 2014 Rise Set
Actual Time 6:50 AM CST 6:26 PM CST
Civil Twilight 6:22 AM CST 6:53 PM CST
Nautical Twilight 5:50 AM CST 7:25 PM CST
Astronomical Twilight 5:19 AM CST 7:57 PM CST
Moon 11:29 AM CST (3/8) 1:27 AM CST (3/8)
Length of Visible Light 12h 30m
Length of Day
11h 36m
First Quarter, 52% of the Moon is Illuminated
Mar 8
First Quarter
Mar 16
Full
Mar 23
Last Quarter
Mar 30
New
Apr 7
First Quarter

Hourly Weather History & Observations

Time (CST) Temp. Windchill Dew Point Humidity Pressure Visibility Wind Dir Wind Speed Gust Speed Precip Events Conditions
12:54 AM 27.0 °F 13.5 °F 18.0 °F 69% 30.24 in 8.0 mi North 19.6 mph - 0.00 in   Overcast
1:54 AM 25.0 °F 10.2 °F 15.1 °F 66% 30.26 in 10.0 mi North 21.9 mph - 0.00 in   Overcast
2:54 AM 23.0 °F 8.3 °F 14.0 °F 68% 30.28 in 10.0 mi North 19.6 mph - N/A   Mostly Cloudy
3:21 AM 21.9 °F 9.8 °F 14.0 °F 72% 30.24 in 10.0 mi North 12.7 mph - N/A   Mostly Cloudy
3:54 AM 21.9 °F 9.2 °F 14.0 °F 72% 30.29 in 10.0 mi North 13.8 mph - N/A   Overcast
4:54 AM 19.9 °F 7.9 °F 12.9 °F 74% 30.32 in 10.0 mi North 11.5 mph - N/A   Overcast
5:46 AM 19.0 °F 6.1 °F 12.9 °F 77% 30.29 in 10.0 mi North 12.7 mph - N/A   Scattered Clouds
5:54 AM 19.0 °F 7.5 °F 12.9 °F 77% 30.35 in 10.0 mi North 10.4 mph - N/A   Partly Cloudy
6:54 AM 19.9 °F 7.3 °F 12.9 °F 74% 30.36 in 10.0 mi North 12.7 mph - N/A   Clear
7:54 AM 21.0 °F 8.1 °F 14.0 °F 74% 30.38 in 10.0 mi North 13.8 mph - N/A   Clear
8:54 AM 23.0 °F 13.1 °F 14.0 °F 68% 30.40 in 10.0 mi North 9.2 mph - N/A   Clear
9:54 AM 28.0 °F 18.6 °F 15.1 °F 58% 30.40 in 10.0 mi North 10.4 mph - N/A   Clear
10:54 AM 30.9 °F 22.8 °F 15.1 °F 52% 30.40 in 10.0 mi North 9.2 mph - N/A   Clear
11:54 AM 35.1 °F 26.4 °F 15.1 °F 44% 30.40 in 10.0 mi North 12.7 mph - N/A   Clear
12:54 PM 35.1 °F 31.0 °F 14.0 °F 42% 30.38 in 10.0 mi NW 4.6 mph - N/A   Clear
1:54 PM 37.9 °F 34.4 °F 12.9 °F 36% 30.35 in 10.0 mi NNW 4.6 mph - N/A   Clear
2:54 PM 41.0 °F 35.8 °F 12.9 °F 32% 30.34 in 10.0 mi NNE 8.1 mph - N/A   Clear
3:54 PM 42.1 °F 39.2 °F 12.0 °F 29% 30.32 in 10.0 mi ENE 4.6 mph - N/A   Clear
4:54 PM 43.0 °F 41.3 °F 10.9 °F 27% 30.33 in 10.0 mi NW 3.5 mph - N/A   Clear
5:54 PM 39.9 °F 35.8 °F 10.0 °F 29% 30.34 in 10.0 mi North 5.8 mph - N/A   Clear
6:54 PM 34.0 °F 31.0 °F 10.9 °F 38% 30.34 in 10.0 mi NE 3.5 mph - N/A   Clear
7:54 PM 28.9 °F - 12.0 °F 49% 30.35 in 10.0 mi Calm Calm - N/A   Clear
8:54 PM 28.0 °F - 12.0 °F 51% 30.35 in 10.0 mi Calm Calm - N/A   Clear
9:54 PM 26.1 °F 20.5 °F 12.0 °F 55% 30.34 in 10.0 mi SSE 4.6 mph - N/A   Clear
10:54 PM 25.0 °F 20.7 °F 12.9 °F 60% 30.33 in 10.0 mi South 3.5 mph - N/A   Clear
11:54 PM 21.0 °F 12.4 °F 12.0 °F 68% 30.32 in 10.0 mi South 6.9 mph - N/A   Clear